Location: Gleizolles
(44.4833°N, 6.7667°E)
Time: 03:11:57
(UTC+00:00)

Vanguard 1 Rocket - Pass Details

Date: 23 June 2024
Orbit: 650 x 4219 km, 34.3° (Epoch: 15 July)

Event Time Altitude Azimuth Distance (km) Brightness Sun altitude
Rises 22:30:31 0° 192° (SSW) 4,636 - -20.5°
Reaches altitude 10° 22:34:01 10° 177° (S) 4,109 - -20.7°
Exits shadow 22:40:36 23° 141° (SE) 3,980 10.1 -21.0°
Maximum altitude 22:42:32 23° 130° (SE) 4,151 10.3 -21.0°
Drops below altitude 10° 22:55:22 10° 88° (E) 6,422 11.6 -21.5°
Sets 23:02:55 0° 77° (ENE) 7,973 12.3 -21.7°
